Regional Weather Roundup
Issued by NWS Northern Indiana

Home | Current Version | Previous Version | Text Only | Print | Product List | Glossary On
Versions: 1 2 3 4 5 6 7 8 9 10 11 12 13 14 15 16 17 18 19 20 21 22 23 24 25 26 27 28 29 30 31 32 33 34 35 36 37 38 39 40 41 42 43 44 45 46 47 48 49 50
000
ASUS43 KIWX 230010
RWRIWX

KIWX WEATHER ROUNDUP
NATIONAL WEATHER SERVICE NORTHERN INDIANA
700 PM EST MON JAN 22 2018

NOTE: "FAIR" INDICATES FEW OR NO CLOUDS BELOW 12,000 FEET WITH NO
SIGNIFICANT WEATHER AND/OR OBSTRUCTIONS TO VISIBILITY.

* THESE STATIONS ARE NOT UNDER NWS QUALITY CONTROL. THEY ALSO MAY NOT
  REPORT WEATHER SUCH AS PRECIPITATION OR FOG.

INZ001>027-230100-
NORTHERN INDIANA

CITY           SKY/WX    TMP DP  RH WIND       PRES   REMARKS
GARY*          MOCLDY    52  46  82 S12       29.48R
VALPARAISO     MOCLDY    51  47  86 MISG      29.50S
6HR MIN TEMP:  50; 6HR MAX TEMP:  54; 6HR PCP: TRACE;

MICHIGAN CITY* FAIR      50  46  87 S7        29.51S
LAPORTE*       FAIR      48  46  93 S9        29.51S
6HR MIN TEMP:  48; 6HR MAX TEMP:  52;

KNOX*          MOCLDY    50  46  87 S7        29.52R
SOUTH BEND     MOCLDY    49  46  90 S12       29.53R
6HR MIN TEMP:  49; 6HR MAX TEMP:  52; 6HR PCP: TRACE;

ELKHART*       MOCLDY    50  48  93 S9        29.53S
GOSHEN         FAIR      49  47  93 S12       29.54R
6HR MIN TEMP:  49; 6HR MAX TEMP:  53; 6HR PCP: TRACE;

MONTICELLO*    CLOUDY    51  45  80 S9        29.50F
6HR MIN TEMP:  51; 6HR MAX TEMP:  54;

LOGANSPORT*    MOCLDY    46  45  93 S9        29.54S
ROCHESTER*     FAIR      50  50 100 S6        29.54R
WARSAW*        FAIR      46  46 100 S5        29.55R
AUBURN*        CLOUDY   N/A N/A N/A S5        29.58S
FORT WAYNE     CLOUDY    52  49  89 S13       29.58F
6HR MIN TEMP:  52; 6HR MAX TEMP:  54;

HUNTINGTON*    CLOUDY    51  49  93 S8        29.56F
6HR MIN TEMP:  51; 6HR MAX TEMP:  53;

PERU/GRISSOM   MOCLDY    49  49 100 S8        29.54R
6HR MIN TEMP:  49; 6HR MAX TEMP:  54;

MARION*        FAIR      50  47  89 S13       29.56F
6HR MIN TEMP: -17; 6HR MAX TEMP:  56; 6HR PCP:  0.02;


$$
INZ028>050-230100-
CENTRAL INDIANA

CITY           SKY/WX    TMP DP  RH WIND       PRES   REMARKS
LAFAYETTE      MOCLDY    51  46  83 S9        29.51S
6HR MIN TEMP:  51; 6HR MAX TEMP:  54; 6HR PCP: TRACE;

MUNCIE*        CLOUDY    55  48  77 S15       29.57F
6HR MIN TEMP:  54; 6HR MAX TEMP:  56; 6HR PCP: TRACE;

INDIANAPOLIS   MOCLDY    52  47  83 S16       29.56S
6HR MIN TEMP:  52; 6HR MAX TEMP:  54;


$$
MIZ043>046-050>051-056>058-064>065-071>073-077>080-230100-
SOUTHWEST LOWER MICHIGAN

CITY           SKY/WX    TMP DP  RH WIND       PRES   REMARKS
BATTLE CREEK   CLOUDY    50  48  93 S9        29.55F
6HR MIN TEMP:  50; 6HR MAX TEMP:  53; 6HR PCP:  0.02;

BENTON HARBOR  CLOUDY    51  47  86 S6        29.51R
6HR MIN TEMP:  50; 6HR MAX TEMP:  54; 6HR PCP:  0.03;

COLDWATER*     CLOUDY    50  50 100 S6        29.56F
6HR MIN TEMP:  50; 6HR MAX TEMP:  53;

HILLSDALE*     RAIN      48  46  93 S6        29.57F
HOLLAND        FOG       46  45  96 S3        29.52S VSB 1/2
6HR MIN TEMP:  43; 6HR MAX TEMP:  50; 6HR PCP:  0.05;

GRAND RAPIDS   CLOUDY    47  46  97 S8        29.53F FOG
6HR MIN TEMP:  39; 6HR MAX TEMP:  47; 6HR PCP:  0.04;

KALAMAZOO      CLOUDY    50  48  93 S7        29.55S
6HR MIN TEMP:  50; 6HR MAX TEMP:  54; 6HR PCP:  0.02;

STURGIS*       CLOUDY    51  49  92 S9G21     29.54S
6HR MIN TEMP:  50; 6HR MAX TEMP:  54;

THREE RIVERS*  CLOUDY    50  49  97 S7        29.54S
6HR MIN TEMP:  50; 6HR MAX TEMP:  53;


$$
OHZ001>008-015>018-024>025-230100-
NORTHWEST OHIO

CITY           SKY/WX    TMP DP  RH WIND       PRES   REMARKS
WAUSEON*       CLOUDY    52  52 100 S14       29.60S
DEFIANCE       CLOUDY    52  46  80 S12       29.60S
6HR MIN TEMP:  52; 6HR MAX TEMP:  54; 6HR PCP:  0.01;

FINDLAY        CLOUDY    53  45  74 S14       29.62S
6HR MIN TEMP:  53; 6HR MAX TEMP:  56; 6HR PCP:  0.01;

TOLEDO EXPRESS CLOUDY    53  49  86 S12       29.61S
6HR MIN TEMP:  53; 6HR MAX TEMP:  57; 6HR PCP:  0.01;

TOLEDO METCALF CLOUDY    53  46  77 S18       29.62F
6HR MIN TEMP:  52; 6HR MAX TEMP:  58; 6HR PCP:  0.04;

LIMA           CLOUDY    53  48  83 S14G25    29.62S
6HR MIN TEMP:  53; 6HR MAX TEMP:  56; 6HR PCP:  0.03;


$$
AND FOR LAKE MICHIGAN COASTAL AND OPEN LAKE BUOY OBSERVATIONS

STATION/POSITION TEMP    WIND        PRES    VSBY  WAVE
                 AIR SEA DIR/SP/G                  HT/PER
                 (F)     (DEG/KT/KT) (MB)    (MI)  (FT/S)
CALUMET HARBOR    51     160/  7/ 13  997.2F
MICHIGAN CITY     51     160/ 11/ 15   N/A
BURNS HARBOR      51     170/ 10/ 21  999.0
SAINT JOSEPH      51     190/  7/ 11 1000.7

$$
&&




USA.gov is the U.S. government's official web portal to all federal, state and local government web resources and services.